Погода в Евлахе

Погода в Евлахе : погода сейчас, прогноз погоды и архив. Всё, что Вы хотите узнать о погоде в Евлахе!

Поиск расширенной информации на нашем сайте:

Другие новости

Новости СМИ2

Главная страница сайта

Новости сайта

02.10.2013

Напоминаем, что на нашем новом сайте вы можете получить высокодетализированные прогнозы погоды по пунктам России, СНГ и мира (включающие важные для авиации метеовеличины, такие как направление и скорость ветра, видимость, явления погоды, количество и форма облачности, нижняя и верхняя граница облачности), а также ознакомиться с разнообразными материалами по авиационной метеорологии и подборкой полезных ссылок на эту тему.

Сайт Метеоцентр.Азия посвящён разработке технологий оптимизации авиаметеорологического обслуживания, включая проектирование и перспективное создание нескольких автоматизированных авиаметеорологических систем:
- система выпуска высокодетальных прогностических карт явлений погоды для нижнего воздушного пространства по России и ближнему зарубежью;
- система верификации прогнозов TAF (выпускаемых синоптиками официальных АМСГ РФ и ближнего зарубежья) и AUTOTAF (выпускаемых сайтом Метеоцентр.Азия) - выявление ошибок, онлайн-сопоставление с фактической погодой METAR, автоматическое внесение коррективов в прогнозы при резком отклонении фактической погоды от прогноза, подсчёт оправдываемости прогнозов по элементам и в целом;
- система обработки, анализа и отображения авиаметеорологической информации для применения провайдерами метеорологической информации.


Погода в Евлахе - сегодня

Время (UTC), дата Ветер
(°,м/с) 
Видим.   Явления Облачность Т
(°С)
Тd
(°С)
f(%) Тe
(°С)
Pmin
(гПа)
dP
(гПа)
Po
(мм)
O2
(г/м3)
Тmin Tmax R s Состояние
почвы
15 24.02.17 340 (С) 20000 м    ясно 
+14 -1.4 35 +14  1019.9  -1.9  764  293           
18 24.02.17 250 (З) 20000 м    ясно 
+10.2 -0.9 46 +10  1022.3  2.4  765  297    +19       
21 24.02.17 120 (ЮВ) 20000 м    ясно 
+5.2 +1.7 78 +4  1023.7  1.4  766  303           
00 25.02.17 210 (ЮЗ) 20000 м    ясно 
+1.5 -0.7 85 +2  1024  0.2  767  307           
03 25.02.17 170 (Ю) 20000 м    ясно 
-0.8 -2.6 88 -2  1024  767  310           
09 25.02.17 040 (СВ) 20000 м    ясно 
+15.5 +1.1 38 +16  1021.9  -2.2  765  292           
12 25.02.17 050 (СВ) 20000 м    ясно 
+20.4 -3 20 +20  1018.4  -3.4  763  286           
15 25.02.17 240 (ЮЗ) 20000 м    ясно 
+18.3 -3.3 23 +20  1016.9  -1.6  761  288           
21 25.02.17 350 (С) 20000 м    ясно 
+8.2 -5.4 38 +9  1016.7  -0.5  761  298           
00 26.02.17 330 (СЗ) 20000 м    ясно 
+9.1 -4.7 37 +7  1015.1  -1.6  760  297           
03 26.02.17 240 (ЮЗ) 20000 м    ясно 
+8.6 -4.7 39 +8  1014.8  -0.3  760  297           
06 26.02.17 350 (С) 12  20000 м    5/0 средняя 
[Ac trans]
+16.6 -3.8 24 +15  1015.3  0.5  760  289           
09 26.02.17 350 (С) 15-18{19}  20000 м    8/0 средняя 
[Ac trans]
+18 -1.7 26 +17  1016.3  761  288           
15 26.02.17 350 (С) 12-15{16}  10 км    5/0 средняя 
[Ac trans]
+14.9 -1.4 33 +13  1019.5  3.1  763  292           
21 26.02.17 150 (ЮВ) 20000 м    10/4 600 м средняя 
[Sc|Ac trans]
+6.1 -2.1 56 +5  1028.9  4.9  770  304           
00 27.02.17 150 (ЮВ) 20000 м    10/4 600 м средняя 
[Sc|Ac trans]
+4.1 -3.8 56 +4  1030  1.1  771  307           
03 27.02.17 120 (ЮВ) 20000 м    10/4 600 м средняя 
[Sc|Ac trans]
+3.1 -3.7 61 +3  1030.5  0.5  772  308           
09 27.02.17 180 (Ю) 20000 м    8/0 средняя 
[Ac trans]
+7.5 -4.7 42 +8  1029.5  -2  771  303           
12 27.02.17 140 (ЮВ) 20000 м    3/0 верхняя 
[Ci fib]
+10.1 -3.3 39 +10  1025.2  -4.3  768  299           
15 27.02.17 080 (В) 20000 м    3/0 верхняя 
[Ci fib]
+8.7 -4.4 39 +10  1023.9  -1.3  767  300           
18 27.02.17 тихо ()   20000 м    ясно 
+4.4 -3.8 55 +4  1023.9  767  304    +10.1       
21 27.02.17 070 (В) 20000 м    ясно 
+0.2 -2.5 82 +1  1023.4  -0.6  766  309           
00 28.02.17 270 (З) 20000 м    ясно 
-0.7 -3.8 79 1022.9  -0.5  766  310           
03 28.02.17 тихо ()   10 км    4/0 средняя 
[Ac trans]
-2.8 -4.1 91 -3  1023.8  0.9  766  313           
09 28.02.17 140 (ЮВ) 20000 м    ясно 
+10.7 -0.5 46 +12  1025.6  -0.8  768  298           
Время (UTC), дата Ветер
(°,м/с) 
Видим.   Явления Облачность Т
(°С)
Тd
(°С)
f(%) Тe
(°С)
Pmin
(гПа)
dP
(гПа)
Po
(мм)
O2
(г/м3)
Тmin Tmax R s Состояние
почвы

Для получения пояснительной информации подведите курсор к названию столбца.

ПОГОДА в Евлахе - архив

Всё, что Вы хотите узнать о погоде в Евлахе - удобно и подробно!

Выберите нужную дату (начиная с 1 января 2015* года) и нажмите кнопку "Найти".
Будут отображены архивные сводки погоды по пункту Евлах, начиная с указанной даты.


Отображать данные в формате CSV (для использования в таблицах Excel)


Внимание! Наш архив погоды предназначен исключительно для личного некоммерческого использования в познавательных целях. Если Вам необходимы официальные справки о состоянии погоды (для производственных, юридических, коммерческих и т.п. целей), обращайтесь в органы Росгидромета.

*Примечание: данная дата относится к архиву по метеостанциям СССР (Россия, СНГ, Балтия).
Архив по метеостанциям Зарубежной Европы и Азии (кроме Китая) хранится 10 дней, по другим регионам земного шара (Китай, Африка, Америка, Австралия, Океания) - 1 день.

Евлах - район местоположения метеостанции


Название, широта, долгота, высота метеостанции:
Евлах (АМСГ) 40.6°ш. 47.2°д. 15 м над ур. моря [Азербайджан]

Дополнительная информация

В oтличие oт бoльшинства пoгoдных сайтoв мы публикуем пoдрoбную метеoинфoрмацию в детальнoм прoфессиoнальнoм фoрмате.

Характеристики температуры и влажнoсти вoздуха измеряются на высoте 2 м в тени вдали oт зданий и деревьев.
Скoрoсть ветра измеряется на высoте 10 м (на урoвне рoста челoвека скoрoсть ветра ниже в 1.5-2 раза). Если метеoстанция нахoдится в гoрoде или в лесу, тo скoрoсть ветра занижена на 2-4 м/с пo сравнению с oткрытым местoм. Скoрoсть ветра над акватoриями крупных рек и oзёр, а также на вершинах хoлмoв на 2-5 м/с выше, чем в oбычных услoвиях.
Атмoсфернoе давление в разных тoчках местнoсти мoжет значительнo oтличаться oт давления на метеoстанции, в зависимoсти oт услoвий рельефа (при пoдъёме на 10 м давление пoнижается примернo на 1 мм рт.ст.).